Location: Abraham Lincoln Continuation High School
(33.9711°N, 117.3662°W)
Time: 08:48:14
(UTC+00:00)

Iridium 4 Rocket - Pass Details

Date: 26 January 2021
Orbit: 583 x 906 km, 86.9° (Epoch: 24 February)

Event Time Altitude Azimuth Distance (km) Brightness Sun altitude
Rises 02:45:03 0° 355° (N) 3,364 6.8 -19.0°
Reaches altitude 10° 02:47:33 10° 353° (N) 2,380 6.0 -19.5°
Maximum altitude 02:52:48 65° 272° (W) 820 3.8 -20.6°
Drops below altitude 10° 02:57:34 10° 191° (S) 2,155 6.0 -21.6°
Sets 02:59:44 0° 188° (S) 3,021 6.8 -22.0°
